• In Deutschland
  • Länderverzeichnis
  • Für 7 Tage
  • Wassertemperatur
  • Satellitenkarten
  • Wetterkarte
  • Widgets
  • user-avatar
    Anmelden

    Stündliche Wetter Aslar

    Heute, 17 Dezember, Sonntag

    Zeit Temperatur Niederschläge Wind Luftdruck Luftfeuchtigkeit
    00:00 -1°C° 0 mm 3 m/S 733 mmHg 90%
    01:00 -1°C° 0 mm 2 m/S 734 mmHg 91%
    02:00 -1°C° 0 mm 2 m/S 734 mmHg 91%
    03:00 -1°C° 0 mm 2 m/S 734 mmHg 91%
    04:00 -1°C° 0 mm 3 m/S 735 mmHg 91%
    05:00 -1°C° 0 mm 3 m/S 735 mmHg 91%
    06:00 -1°C° 0 mm 3 m/S 735 mmHg 90%
    07:00 -1°C° 0 mm 2 m/S 736 mmHg 90%
    08:00 -1°C° 0 mm 2 m/S 736 mmHg 88%
    09:00 0°C° 0 mm 3 m/S 737 mmHg 87%
    10:00 0°C° 0 mm 3 m/S 737 mmHg 85%
    11:00 0°C° 0 mm 3 m/S 737 mmHg 84%
    12:00 0°C° 0 mm 3 m/S 738 mmHg 82%
    13:00 +2°C° 0 mm 2 m/S 738 mmHg 79%
    14:00 +2°C° 0 mm 2 m/S 738 mmHg 81%
    15:00 +1°C° 0 mm 2 m/S 738 mmHg 83%
    16:00 +1°C° 0 mm 2 m/S 738 mmHg 85%
    17:00 +1°C° 0 mm 2 m/S 739 mmHg 86%
    18:00 -1°C° 0 mm 2 m/S 739 mmHg 88%
    19:00 -1°C° 0 mm 2 m/S 739 mmHg 90%
    20:00 -1°C° 0 mm 2 m/S 739 mmHg 90%
    21:00 -1°C° 0 mm 2 m/S 739 mmHg 90%
    22:00 -1°C° 0 mm 2 m/S 739 mmHg 90%
    23:00 -1°C° 0,1 mm 3 m/S 738 mmHg 90%

    Morgen, 18 Dezember, Montag

    Zeit Temperatur Niederschläge Wind Luftdruck Luftfeuchtigkeit
    00:00 -1°C° 0,1 mm 3 m/S 738 mmHg 89%
    01:00 -1°C° 0,1 mm 3 m/S 737 mmHg 88%
    02:00 -2°C° 0,5 mm 4 m/S 737 mmHg 89%
    03:00 -2°C° 0,5 mm 4 m/S 736 mmHg 89%
    04:00 -2°C° 0,5 mm 4 m/S 736 mmHg 90%
    05:00 -2°C° 0,6 mm 4 m/S 735 mmHg 91%
    06:00 -1°C° 0,6 mm 3 m/S 735 mmHg 91%
    07:00 -1°C° 0,6 mm 3 m/S 735 mmHg 92%
    08:00 -1°C° 0,4 mm 3 m/S 735 mmHg 93%
    09:00 -1°C° 0,4 mm 2 m/S 735 mmHg 93%
    10:00 -1°C° 0,4 mm 2 m/S 736 mmHg 94%
    11:00 +2°C° 0,1 mm 1 m/S 736 mmHg 94%
    12:00 +2°C° 0,1 mm 1 m/S 737 mmHg 93%
    13:00 +3°C° 0,1 mm 1 m/S 737 mmHg 93%
    14:00 +2°C° 0 mm 1 m/S 737 mmHg 94%
    15:00 +2°C° 0 mm 1 m/S 738 mmHg 94%
    16:00 +1°C° 0 mm 0 m/S 738 mmHg 95%
    17:00 +2°C° 0 mm 1 m/S 739 mmHg 95%
    18:00 +2°C° 0 mm 1 m/S 739 mmHg 96%
    19:00 +2°C° 0 mm 1 m/S 740 mmHg 96%
    20:00 +2°C° 0,1 mm 1 m/S 740 mmHg 96%
    21:00 +2°C° 0,1 mm 1 m/S 741 mmHg 96%
    22:00 +2°C° 0,1 mm 1 m/S 741 mmHg 96%
    23:00 +2°C° 0 mm 1 m/S 742 mmHg 96%

    übermorgen, 19 Dezember, Dienstag

    Zeit Temperatur Niederschläge Wind Luftdruck Luftfeuchtigkeit
    00:00 +2°C° 0 mm 1 m/S 742 mmHg 96%
    01:00 +2°C° 0 mm 1 m/S 742 mmHg 97%
    02:00 +2°C° 0 mm 1 m/S 743 mmHg 96%
    03:00 +2°C° 0 mm 1 m/S 743 mmHg 96%
    04:00 +2°C° 0 mm 1 m/S 743 mmHg 96%
    05:00 +2°C° 0 mm 1 m/S 743 mmHg 96%
    06:00 +2°C° 0 mm 1 m/S 744 mmHg 96%
    07:00 +2°C° 0 mm 1 m/S 744 mmHg 96%
    08:00 +2°C° 0 mm 1 m/S 745 mmHg 95%
    09:00 +3°C° 0 mm 1 m/S 745 mmHg 95%
    10:00 +3°C° 0 mm 1 m/S 745 mmHg 94%
    11:00 +3°C° 0 mm 1 m/S 746 mmHg 93%
    12:00 +2°C° 0 mm 2 m/S 746 mmHg 92%
    13:00 +3°C° 0 mm 2 m/S 746 mmHg 91%
    14:00 +3°C° 0 mm 2 m/S 746 mmHg 92%
    15:00 +2°C° 0 mm 2 m/S 746 mmHg 93%
    16:00 +2°C° 0 mm 2 m/S 746 mmHg 93%
    17:00 +2°C° 0 mm 2 m/S 746 mmHg 94%
    18:00 +3°C° 0 mm 1 m/S 746 mmHg 94%
    19:00 +3°C° 0 mm 1 m/S 746 mmHg 95%
    20:00 +2°C° 0,2 mm 2 m/S 746 mmHg 95%
    21:00 +2°C° 0,2 mm 2 m/S 746 mmHg 95%
    22:00 +2°C° 0,2 mm 2 m/S 746 mmHg 95%
    23:00 +2°C° 0,2 mm 2 m/S 746 mmHg 95%

    20 Dezember, Mittwoch

    Zeit Temperatur Niederschläge Wind Luftdruck Luftfeuchtigkeit
    00:00 +2°C° 0,2 mm 2 m/S 746 mmHg 95%
    01:00 +2°C° 0,2 mm 2 m/S 746 mmHg 95%
    02:00 +2°C° 0,4 mm 2 m/S 745 mmHg 95%
    03:00 +2°C° 0,4 mm 2 m/S 745 mmHg 95%
    04:00 +2°C° 0,4 mm 2 m/S 745 mmHg 94%
    05:00 +2°C° 0,4 mm 2 m/S 745 mmHg 94%
    06:00 +2°C° 0,4 mm 2 m/S 744 mmHg 94%
    07:00 +2°C° 0,4 mm 2 m/S 744 mmHg 94%
    08:00 +2°C° 0,2 mm 2 m/S 744 mmHg 94%
    09:00 +3°C° 0,2 mm 2 m/S 745 mmHg 95%
    10:00 +3°C° 0,2 mm 2 m/S 745 mmHg 95%
    11:00 +4°C° 0,1 mm 2 m/S 745 mmHg 94%
    12:00 +4°C° 0,1 mm 2 m/S 745 mmHg 94%
    13:00 +5°C° 0,1 mm 2 m/S 744 mmHg 93%
    14:00 +5°C° 0 mm 2 m/S 744 mmHg 94%
    15:00 +5°C° 0 mm 2 m/S 744 mmHg 95%
    16:00 +4°C° 0 mm 2 m/S 744 mmHg 96%
    17:00 +4°C° 0 mm 2 m/S 744 mmHg 96%
    18:00 +4°C° 0 mm 2 m/S 745 mmHg 96%
    19:00 +4°C° 0 mm 2 m/S 745 mmHg 97%
    20:00 +4°C° 0 mm 2 m/S 745 mmHg 97%
    21:00 +4°C° 0 mm 2 m/S 745 mmHg 97%
    22:00 +5°C° 0 mm 2 m/S 745 mmHg 97%
    23:00 +5°C° 0 mm 2 m/S 745 mmHg 97%

    21 Dezember, Donnerstag

    Zeit Temperatur Niederschläge Wind Luftdruck Luftfeuchtigkeit
    00:00 +5°C° 0 mm 2 m/S 745 mmHg 97%
    01:00 +5°C° 0 mm 2 m/S 745 mmHg 97%
    02:00 +5°C° 0,1 mm 2 m/S 745 mmHg 97%
    03:00 +5°C° 0,1 mm 2 m/S 745 mmHg 97%
    04:00 +5°C° 0,1 mm 2 m/S 745 mmHg 97%
    05:00 +6°C° 0,4 mm 2 m/S 744 mmHg 97%
    06:00 +5°C° 0,4 mm 3 m/S 744 mmHg 96%
    07:00 +5°C° 0,4 mm 3 m/S 744 mmHg 96%
    08:00 +5°C° 0,2 mm 3 m/S 745 mmHg 96%
    09:00 +6°C° 0,2 mm 2 m/S 745 mmHg 96%
    10:00 +7°C° 0,2 mm 2 m/S 745 mmHg 96%
    11:00 +7°C° 0,1 mm 2 m/S 745 mmHg 95%
    12:00 +7°C° 0,1 mm 2 m/S 745 mmHg 95%
    13:00 +7°C° 0,1 mm 2 m/S 745 mmHg 94%
    14:00 +7°C° 0,1 mm 2 m/S 745 mmHg 95%
    15:00 +6°C° 0,1 mm 2 m/S 745 mmHg 95%
    16:00 +6°C° 0,1 mm 2 m/S 745 mmHg 95%
    17:00 +6°C° 0,2 mm 2 m/S 745 mmHg 96%
    18:00 +6°C° 0,2 mm 2 m/S 745 mmHg 96%
    19:00 +6°C° 0,2 mm 1 m/S 745 mmHg 97%
    20:00 +5°C° 0,3 mm 2 m/S 745 mmHg 96%
    21:00 +5°C° 0,3 mm 2 m/S 745 mmHg 96%
    22:00 +5°C° 0,3 mm 2 m/S 745 mmHg 96%
    23:00 +5°C° 0 mm 2 m/S 745 mmHg 95%

    22 Dezember, Freitag

    Zeit Temperatur Niederschläge Wind Luftdruck Luftfeuchtigkeit
    00:00 +4°C° 0 mm 2 m/S 745 mmHg 95%
    01:00 +3°C° 0 mm 3 m/S 744 mmHg 95%
    02:00 +3°C° 0 mm 3 m/S 745 mmHg 94%
    03:00 +3°C° 0 mm 3 m/S 745 mmHg 93%
    04:00 +3°C° 0 mm 3 m/S 745 mmHg 92%
    05:00 +3°C° 0,1 mm 3 m/S 745 mmHg 91%
    06:00 +3°C° 0,1 mm 3 m/S 745 mmHg 89%
    07:00 +3°C° 0,1 mm 3 m/S 745 mmHg 88%
    08:00 +3°C° 0,1 mm 3 m/S 745 mmHg 87%
    09:00 +3°C° 0,1 mm 3 m/S 745 mmHg 86%
    10:00 +3°C° 0,1 mm 4 m/S 746 mmHg 85%
    11:00 +3°C° 0,1 mm 4 m/S 745 mmHg 83%
    12:00 +3°C° 0,1 mm 4 m/S 745 mmHg 82%
    13:00 +2°C° 0,1 mm 5 m/S 744 mmHg 81%
    14:00 +2°C° 0,1 mm 5 m/S 744 mmHg 81%
    15:00 +2°C° 0,1 mm 5 m/S 744 mmHg 82%
    16:00 +2°C° 0,1 mm 5 m/S 743 mmHg 82%
    17:00 +2°C° 0,1 mm 5 m/S 743 mmHg 83%
    18:00 +2°C° 0,1 mm 5 m/S 743 mmHg 83%
    19:00 +2°C° 0,1 mm 5 m/S 743 mmHg 84%
    20:00 +1°C° 0,1 mm 5 m/S 743 mmHg 84%
    21:00 +1°C° 0,1 mm 4 m/S 743 mmHg 84%
    22:00 +1°C° 0,1 mm 4 m/S 743 mmHg 85%
    23:00 +1°C° 0,1 mm 4 m/S 743 mmHg 84%
    Mehr zeigen